| time (UTC) | temp F | wind direction | speed MPH | gust MPH | rain 1hr in | rain 24hr in | rain mn in | humidity % | barometer mb |
| 20260508023021 | 57 | 37 | 0.0 | 0.0 | 0.00 | 0.00 | 0.00 | 42 | 1009.1 |
| 20260508021518 | 57 | 37 | 0.0 | 0.0 | 0.00 | 0.00 | 0.00 | 37 | 1009.0 |
| 20260508020018 | 57 | 11 | 0.0 | 3.0 | 0.00 | 0.00 | 0.00 | 38 | 1008.9 |
| 20260508014518 | 58 | 12 | 0.0 | 0.0 | 0.00 | 0.00 | 0.00 | 37 | 1008.8 |
| 20260508013016 | 60 | 12 | 0.0 | 0.0 | 0.00 | 0.00 | 0.00 | 35 | 1008.5 |
| 20260508011522 | 61 | 12 | 0.0 | 0.0 | 0.00 | 0.00 | 0.00 | 31 | 1008.4 |
| 20260508010016 | 60 | 12 | 0.0 | 0.0 | 0.00 | 0.00 | 0.00 | 31 | 1008.2 |
| 20260508004521 | 61 | 350 | 0.0 | 1.0 | 0.00 | 0.00 | 0.00 | 32 | 1008.0 |
| 20260508003015 | 61 | 340 | 0.0 | 8.0 | 0.00 | 0.00 | 0.00 | 33 | 1008.0 |
| 20260508001514 | 61 | 15 | 0.0 | 0.0 | 0.00 | 0.00 | 0.00 | 34 | 1008.0 |
| 20260508000013 | 61 | 160 | 0.0 | 0.0 | 0.00 | 0.00 | 0.00 | 42 | 1008.0 |
| 20260507234518 | 61 | 189 | 0.0 | 0.0 | 0.00 | 0.00 | 0.00 | 31 | 1008.3 |
| 20260507233014 | 61 | 190 | 0.0 | 0.0 | 0.00 | 0.00 | 0.00 | 35 | 1008.4 |
| 20260507231518 | 61 | 190 | 0.0 | 2.0 | 0.00 | 0.00 | 0.00 | 32 | 1008.4 |
| 20260507230010 | 62 | 219 | 0.0 | 0.0 | 0.00 | 0.00 | 0.00 | 31 | 1008.4 |
| 20260507224511 | 62 | 316 | 0.0 | 1.0 | 0.00 | 0.00 | 0.00 | 29 | 1008.3 |
| 20260507223009 | 62 | 188 | 0.0 | 0.0 | 0.00 | 0.00 | 0.00 | 29 | 1008.2 |
| 20260507221514 | 62 | 188 | 0.0 | 0.0 | 0.00 | 0.00 | 0.00 | 29 | 1008.1 |
| 20260507220007 | 63 | 202 | 0.0 | 1.0 | 0.00 | 0.00 | 0.00 | 28 | 1008.3 |
| 20260507214505 | 63 | 209 | 0.0 | 5.0 | 0.00 | 0.00 | 0.00 | 30 | 1008.4 |
| 20260507213111 | 63 | 190 | 0.0 | 10.0 | 0.00 | 0.00 | 0.00 | 29 | 1008.6 |
| 20260507211505 | 64 | 210 | 0.0 | 0.0 | 0.00 | 0.00 | 0.00 | 27 | 1008.7 |
| 20260507210002 | 63 | 194 | 4.0 | 10.0 | 0.00 | 0.00 | 0.00 | 27 | 1008.7 |
| 20260507204500 | 62 | 203 | 0.0 | 7.0 | 0.00 | 0.00 | 0.00 | 26 | 1008.8 |
| 20260507203107 | 63 | 203 | 6.0 | 11.0 | 0.00 | 0.00 | 0.00 | 27 | 1008.8 |
| 20260507201603 | 65 | 206 | 0.0 | 4.0 | 0.00 | 0.00 | 0.00 | 25 | 1009.1 |
| 20260507200054 | 63 | 207 | 1.0 | 7.0 | 0.00 | 0.00 | 0.00 | 27 | 1009.4 |
| 20260507194551 | 61 | 175 | 0.0 | 1.0 | 0.00 | 0.00 | 0.00 | 26 | 1009.6 |
| 20260507193054 | 61 | 92 | 3.0 | 9.0 | 0.00 | 0.00 | 0.00 | 26 | 1009.6 |
| 20260507191548 | 61 | 151 | 0.0 | 11.0 | 0.00 | 0.00 | 0.00 | 25 | 1009.7 |
| 20260507190046 | 61 | 64 | 2.0 | 12.0 | 0.00 | 0.00 | 0.00 | 26 | 1009.9 |
| 20260507184545 | 61 | 130 | 0.0 | 10.0 | 0.00 | 0.00 | 0.00 | 26 | 1010.0 |
| 20260507183045 | 59 | 86 | 2.0 | 10.0 | 0.00 | 0.00 | 0.00 | 26 | 1010.0 |
| 20260507181540 | 58 | 24 | 0.0 | 10.0 | 0.00 | 0.00 | 0.00 | 28 | 1010.0 |
| 20260507180043 | 58 | 175 | 0.0 | 6.0 | 0.00 | 0.00 | 0.00 | 28 | 1010.2 |
| 20260507174536 | 58 | 127 | 0.0 | 3.0 | 0.00 | 0.00 | 0.00 | 27 | 1010.5 |
| 20260507173034 | 56 | 34 | 0.0 | 3.0 | 0.00 | 0.00 | 0.00 | 28 | 1010.7 |
| 20260507171525 | 56 | 36 | 0.0 | 4.0 | 0.00 | 0.00 | 0.00 | 28 | 1010.8 |
| 20260507170022 | 54 | 336 | 0.0 | 2.0 | 0.00 | 0.00 | 0.00 | 30 | 1010.9 |
| 20260507164521 | 54 | 355 | 0.0 | 4.0 | 0.00 | 0.00 | 0.00 | 33 | 1010.9 |
| 20260507163020 | 54 | 42 | 0.0 | 12.0 | 0.00 | 0.00 | 0.00 | 32 | 1010.9 |
| 20260507161533 | 54 | 24 | 2.0 | 11.0 | 0.00 | 0.00 | 0.00 | 32 | 1011.0 |
| 20260507160029 | 54 | 32 | 3.0 | 10.0 | 0.00 | 0.00 | 0.00 | 29 | 1011.1 |
| 20260507154520 | 54 | 44 | 0.0 | 11.0 | 0.00 | 0.00 | 0.00 | 28 | 1011.1 |
| 20260507153018 | 54 | 69 | 1.0 | 12.0 | 0.00 | 0.00 | 0.00 | 29 | 1011.1 |
| 20260507151533 | 54 | 33 | 0.0 | 1.0 | 0.00 | 0.00 | 0.00 | 29 | 1011.1 |
| 20260507150016 | 55 | 355 | 0.0 | 3.0 | 0.00 | 0.00 | 0.00 | 29 | 1011.1 |
| 20260507144512 | 54 | 346 | 0.0 | 4.0 | 0.00 | 0.00 | 0.00 | 31 | 1011.3 |
| 20260507143010 | 52 | 87 | 0.0 | 1.0 | 0.00 | 0.00 | 0.00 | 32 | 1011.4 |
| 20260507141509 | 52 | 188 | 0.0 | 0.0 | 0.00 | 0.00 | 0.00 | 30 | 1011.4 |
| 20260507140005 | 50 | 188 | 0.0 | 0.0 | 0.00 | 0.00 | 0.00 | 34 | 1011.3 |
| 20260507134601 | 47 | 188 | 0.0 | 0.0 | 0.00 | 0.00 | 0.00 | 40 | 1011.3 |
| 20260507133058 | 43 | 188 | 0.0 | 0.0 | 0.00 | 0.00 | 0.00 | 41 | 1011.2 |
| 20260507131612 | 39 | 188 | 0.0 | 0.0 | 0.00 | 0.00 | 0.00 | 49 | 1011.2 |
| 20260507130055 | 36 | 188 | 0.0 | 0.0 | 0.00 | 0.00 | 0.00 | 52 | 1010.9 |
| 20260507124555 | 35 | 188 | 0.0 | 0.0 | 0.00 | 0.00 | 0.00 | 53 | 1010.7 |
| 20260507123051 | 35 | 188 | 0.0 | 0.0 | 0.00 | 0.00 | 0.00 | 54 | 1010.8 |
| 20260507121520 | 34 | 188 | 0.0 | 0.0 | 0.00 | 0.00 | 0.00 | 55 | 1010.6 |
| 20260507120018 | 35 | 189 | 0.0 | 0.0 | 0.00 | 0.00 | 0.00 | 52 | 1010.6 |
| 20260507114525 | 35 | 189 | 0.0 | 3.0 | 0.00 | 0.00 | 0.00 | 51 | 1010.6 |
| 20260507113014 | 35 | 188 | 0.0 | 3.0 | 0.00 | 0.00 | 0.00 | 52 | 1010.3 |
| 20260507111521 | 34 | 192 | 0.0 | 0.0 | 0.00 | 0.00 | 0.00 | 53 | 1010.3 |
| 20260507110014 | 34 | 199 | 0.0 | 1.0 | 0.00 | 0.00 | 0.00 | 53 | 1010.1 |
| 20260507104512 | 34 | 200 | 0.0 | 0.0 | 0.00 | 0.00 | 0.00 | 52 | 1009.9 |
| 20260507103011 | 34 | 200 | 0.0 | 0.0 | 0.00 | 0.00 | 0.00 | 52 | 1009.8 |
| 20260507101609 | 35 | 173 | 0.0 | 0.0 | 0.00 | 0.00 | 0.00 | 50 | 1009.7 |
| 20260507100007 | 36 | 172 | 0.0 | 2.0 | 0.00 | 0.00 | 0.00 | 48 | 1009.8 |
| 20260507094506 | 36 | 172 | 0.0 | 0.0 | 0.00 | 0.00 | 0.00 | 48 | 1009.9 |
| 20260507093005 | 36 | 172 | 0.0 | 4.0 | 0.00 | 0.00 | 0.00 | 47 | 1009.8 |
| 20260507091504 | 36 | 172 | 0.0 | 0.0 | 0.00 | 0.00 | 0.00 | 48 | 1009.7 |
| 20260507090005 | 36 | 172 | 0.0 | 3.0 | 0.00 | 0.00 | 0.00 | 49 | 1009.7 |
| 20260507084501 | 35 | 172 | 0.0 | 1.0 | 0.00 | 0.00 | 0.00 | 49 | 1009.7 |
| 20260507083058 | 36 | 172 | 0.0 | 3.0 | 0.00 | 0.00 | 0.00 | 48 | 1009.6 |
| 20260507081556 | 39 | 171 | 0.0 | 6.0 | 0.00 | 0.00 | 0.00 | 44 | 1009.7 |
| 20260507080053 | 36 | 175 | 0.0 | 0.0 | 0.00 | 0.00 | 0.00 | 48 | 1009.9 |
| 20260507074552 | 36 | 177 | 0.0 | 0.0 | 0.00 | 0.00 | 0.00 | 47 | 1010.1 |
| 20260507073049 | 37 | 177 | 0.0 | 3.0 | 0.00 | 0.00 | 0.00 | 48 | 1010.2 |
| 20260507071547 | 39 | 176 | 0.0 | 0.0 | 0.00 | 0.00 | 0.00 | 42 | 1010.1 |
| 20260507070057 | 39 | 172 | 0.0 | 0.0 | 0.00 | 0.00 | 0.00 | 41 | 1010.2 |
| 20260507064542 | 41 | 172 | 0.0 | 0.0 | 0.00 | 0.00 | 0.00 | 38 | 1010.2 |
| 20260507063038 | 41 | 172 | 0.0 | 0.0 | 0.00 | 0.00 | 0.00 | 39 | 1010.3 |
| 20260507061536 | 42 | 175 | 0.0 | 0.0 | 0.00 | 0.00 | 0.00 | 37 | 1010.5 |
| 20260507060034 | 43 | 184 | 0.0 | 0.0 | 0.00 | 0.00 | 0.00 | 35 | 1010.6 |
| 20260507054532 | 43 | 210 | 0.0 | 2.0 | 0.00 | 0.00 | 0.00 | 35 | 1010.6 |
| 20260507053032 | 43 | 204 | 0.0 | 9.0 | 0.00 | 0.00 | 0.00 | 37 | 1010.6 |
| 20260507051538 | 41 | 188 | 0.0 | 10.0 | 0.00 | 0.00 | 0.00 | 42 | 1010.7 |
| 20260507050037 | 40 | 198 | 7.0 | 9.0 | 0.00 | 0.00 | 0.00 | 45 | 1010.8 |
| 20260507044528 | 42 | 196 | 0.0 | 8.0 | 0.00 | 0.00 | 0.00 | 42 | 1010.9 |
| 20260507043026 | 46 | 175 | 0.0 | 7.0 | 0.00 | 0.00 | 0.00 | 36 | 1011.2 |
| 20260507041524 | 46 | 158 | 0.0 | 6.0 | 0.00 | 0.00 | 0.00 | 35 | 1011.2 |
| 20260507040023 | 47 | 167 | 0.0 | 8.0 | 0.00 | 0.00 | 0.00 | 34 | 1011.4 |
| 20260507034535 | 47 | 167 | 0.0 | 7.0 | 0.00 | 0.00 | 0.00 | 34 | 1011.6 |
| 20260507033020 | 47 | 167 | 9.0 | 12.0 | 0.00 | 0.00 | 0.00 | 34 | 1011.8 |
| 20260507031518 | 47 | 163 | 4.0 | 8.0 | 0.00 | 0.00 | 0.00 | 34 | 1012.0 |
| 20260507030019 | 48 | 136 | 0.0 | 0.0 | 0.00 | 0.00 | 0.00 | 33 | 1012.2 |
| 20260507024529 | 48 | 147 | 0.0 | 0.0 | 0.00 | 0.00 | 0.00 | 32 | 1012.3 |